STARLINK-6224, 56425

Orbit data source: Space-Track

STARLINK-6224, 56425 is a payload satellite owned by SpaceX/Seattle (US) in LEO that was launched on Thu, 04 May 2023 UTC via an FALCON 9 launch vehicle from the Air Force Eastern Test Range (AFETR). Payload-class satellites include a variety of spacecraft equipped with specific instruments for various scientific and technological missions. These include communications satellites like Starlink; space stations such as the ISS; scientific satellites like the Hubble; Earth observation satellites from companies like Planet Labs, Umbra, and HawkEye 360; GPS; miniature CubeSats for education and research; and military/defense satellites.

Loading next visibility...
Identifier
56425, 2023-061BD
Orbit
LEO
Country
Flag of USUS
Related business
Manufacturer
SpaceX/Seattle
Mission
Operational Commercial Communications
Bus & Motor
STARLINK, Unknown motor
Mass
305 kg wet, ~290 kg dry
Launch date (UTC)
2023-05-04 (3 years ago)
Launch vehicle
FALCON 9
Launch site
Air Force Eastern Test Range (AFETR)
Object type
Payload
Rocket body
Debris
Shape & HBR
Box + 1 Pan, 10.1 m
Radar Cross Section
11.087 m², Large (>1 m²)

Expand to show TLE details & history
Last TLE update: 2 days ago

TLE from 2 days ago
0 STARLINK-6224
1 56425U 23061BD  26171.12065921  .00011364  00000-0  41920-3 0  9991
2 56425  43.0080 321.2079 0001491 252.5834 107.4855 15.27787965172622
Epoch: 2026-06-20T02:53Z
TLE epoch observation values (Epoch: 2026-06-20T02:53:44.955Z)
Latitude
-0.00002°
Longitude
9.43073°
Altitude
482.51 km
Speed
7.626 km/s
True Right ascension
21h 24m 49s
True Declination
0° 00' 00"
Sunlit
Object was in full shadow at epoch
Visualization orbit readout
Latitude
Unknown
Longitude
Unknown
Altitude
Unknown
Speed
Unknown
Apparent Right ascension
Unknown
Apparent Declination
Unknown
Sunlit
N/A
Visualization observer readout
Local Sidereal Time
21:34:09
Azimuth
Unknown
Elevation
Unknown
Doppler factor
Unknown
Orbital elements
Apogee altitude
485.394 km
Perigee altitude
483.347 km
Semi-major axis
6,862.507 km
Eccentricity
0.00015
Inclination
43.008°
RAAN
321.2079°
Arg. of periapsis
252.5834°
True anomaly
107.5018°
Mean anomaly
107.4855°
Eccentric anomaly
107.49365°
Mean motion
3.81785 °/min
Orbital period
94.29 mins
BSTAR
0.0004192
Loading maneuver chart data...
Computing Atmospheric mass density...
Loading historical data...
Loading historical data...
Loading historical data...
Loading historical data...
Loading historical data...
Loading historical data...
Loading historical data...

Documentation

Showing up to 5 results
|